Wind_Speed
28 29 29 30 30 31 32 33 33 34 35 35 36 36 37 37 38 39 39 40 40 41 42 42 43 44 44 45 46 46 47 47 48 48 48 48 49 49 48 48 48 48 47
28 29 30 31 32 32 33 34 35 35 36 36 37 37 38 38 39 39 40 40 41 41 42 43 43 44 45 45 46 47 47 48 49 49 50 50 50 51 51 51 51 51 50
29 30 31 32 32 33 34 35 36 36 37 37 38 38 38 39 40 40 41 42 42 43 43 43 44 45 45 46 46 47 48 48 49 50 50 50 51 51 52 52 52 52 52
30 31 32 33 34 35 36 36 37 37 38 38 38 38 38 39 40 40 41 42 42 43 44 44 44 45 45 46 47 47 48 48 49 50 50 51 51 52 52 52 53 53 53
31 32 33 34 35 36 37 37 38 38 38 38 38 38 39 40 41 41 42 43 43 44 45 46 46 46 47 48 48 49 49 50 50 51 51 51 52 52 53 54 54 54 55
33 34 35 36 37 37 37 38 38 38 38 38 38 39 40 40 42 42 43 44 45 46 47 48 48 49 49 50 50 51 51 52 52 53 53 53 54 54 55 55 55 56 56
35 35 36 37 38 38 38 39 39 40 40 40 40 40 41 42 43 44 45 46 47 48 48 49 49 50 51 52 53 53 54 54 55 56 56 56 57 57 58 58 58 59 59
36 36 38 39 39 40 40 40 41 41 42 43 43 43 42 43 44 45 46 47 49 50 51 52 52 53 54 55 56 57 57 58 58 59 60 60 61 61 62 62 62 63 63
38 38 39 40 41 41 42 42 43 43 44 45 46 46 46 45 45 45 47 49 51 52 53 54 55 56 57 58 59 60 61 61 62 63 63 64 65 65 65 65 66 66 66
39 40 41 42 43 43 43 44 44 45 46 46 48 49 50 51 50 48 47 49 51 53 54 56 57 58 60 61 62 63 63 64 65 66 66 67 67 68 68 68 68 68 68
41 42 43 43 44 45 45 45 46 47 48 49 50 51 52 53 55 55 52 51 52 53 55 57 59 60 62 63 64 66 67 67 68 68 69 69 69 70 70 71 71 71 71
43 43 44 45 46 46 47 47 48 49 51 52 53 54 54 55 56 58 58 57 56 55 57 58 60 62 63 64 66 67 68 69 70 70 71 72 72 73 73 73 74 74 74
44 45 46 46 47 47 48 49 50 51 53 53 54 55 56 58 59 60 61 61 61 60 60 61 62 63 65 66 67 68 69 70 71 72 73 74 74 75 75 76 76 77 77
45 46 47 47 48 49 50 51 52 53 54 55 55 56 58 59 60 62 63 65 65 64 64 64 64 65 66 67 68 69 70 71 72 74 75 75 76 77 77 78 78 79 80
47 47 48 49 50 51 51 52 53 54 55 56 57 58 60 61 62 63 64 66 67 67 66 66 67 67 68 69 70 71 72 73 74 75 76 77 78 79 79 80 81 81 81
48 49 50 50 51 52 53 54 55 55 56 58 59 60 61 62 62 63 65 66 68 70 70 70 71 72 72 73 74 75 76 76 77 78 78 79 80 80 81 81 81 81 80
49 50 51 51 52 53 54 55 56 57 58 59 60 61 62 63 63 64 66 67 69 71 72 71 73 75 77 78 78 79 79 79 79 79 79 79 79 78 78 77 76 76 75
51 51 52 53 54 55 56 56 57 58 59 60 61 62 62 63 64 66 67 69 71 73 75 75 76 78 79 80 81 80 80 80 79 78 77 75 74 72 71 69 68 67 66
52 53 54 54 55 56 57 58 59 59 60 61 62 63 64 65 66 68 69 71 74 76 78 79 79 79 80 80 80 79 78 77 75 73 71 68 66 64 62 61 59 58 57
54 54 55 56 56 57 58 59 59 60 61 62 63 64 66 67 69 70 72 75 77 79 81 82 81 80 79 78 78 76 74 72 69 66 63 61 58 56 54 53 51 50 50
54 55 56 56 57 58 59 60 61 61 62 63 64 66 68 70 72 74 77 79 81 82 82 82 81 79 76 75 73 71 68 64 60 57 55 53 51 48 47 46 45 45 45
55 56 56 57 58 59 61 62 62 63 64 65 67 69 71 73 75 78 80 82 83 83 83 81 79 75 72 69 67 63 60 56 51 49 48 45 44 42 42 42 42 41 41
55 56 57 58 59 61 62 63 64 66 67 69 71 73 75 77 79 81 82 83 82 81 80 77 73 70 66 62 59 55 52 49 45 43 41 38 39 38 39 39 38 38 38
56 56 58 59 61 63 64 65 67 69 70 72 74 76 78 80 82 84 84 82 79 76 73 70 67 63 59 55 52 49 46 43 39 38 37 34 34 35 35 36 36 36 35
56 58 59 61 63 64 66 68 70 72 73 74 77 80 82 83 84 84 82 78 73 69 66 64 60 56 52 49 47 45 41 39 35 34 34 33 32 32 32 33 34 33 32
58 60 61 63 65 67 69 71 73 75 77 78 80 82 83 83 82 79 76 72 68 63 59 56 53 49 47 44 43 41 38 36 33 30 31 31 30 30 29 30 31 31 30
Wind_Direction
293 294 293 293 293 293 292 292 291 291 291 290 290 289 288 287 285 284 282 281 279 278 277 276 275 274 273 272 271 270 270 269 268 268 268 268 267 267 267 267 267 267 267
292 293 293 293 293 293 293 293 293 292 292 291 291 290 289 287 286 285 284 283 282 280 279 278 277 276 275 274 273 272 271 271 270 269 269 268 268 268 267 267 267 267 267
291 292 292 293 293 294 294 294 294 294 293 292 291 290 289 288 286 285 284 283 283 282 280 279 278 278 277 276 275 274 273 272 272 271 270 270 269 269 268 268 267 267 267
292 292 293 294 294 295 294 294 294 293 293 292 291 290 290 289 288 287 286 285 284 283 282 281 280 279 278 277 277 276 275 274 273 272 272 271 270 270 269 269 268 268 267
291 292 294 295 295 295 295 294 293 293 292 292 291 290 289 289 288 287 287 286 285 284 283 282 281 280 279 279 278 277 276 275 274 273 273 272 271 271 270 269 269 268 268
292 293 294 295 296 296 295 294 293 292 291 290 290 289 289 288 288 287 286 286 285 284 284 283 283 282 281 280 279 278 277 276 275 274 274 273 272 271 271 270 270 269 269
293 294 295 295 296 296 295 294 293 292 291 290 289 288 288 288 287 287 286 286 285 285 284 284 283 283 282 281 280 279 278 277 277 276 275 274 273 272 272 271 270 270 269
293 294 295 295 295 295 295 294 293 293 292 291 290 288 287 287 287 288 287 287 287 286 286 285 284 283 282 282 281 280 279 279 278 277 276 275 274 273 273 272 271 270 270
294 295 295 295 296 296 296 295 294 294 293 293 292 290 289 286 284 285 286 287 287 287 286 286 285 285 284 283 282 281 281 280 279 278 277 276 275 274 274 273 272 271 270
295 296 296 297 297 297 297 296 296 296 295 294 294 293 292 291 288 285 284 285 285 285 285 285 285 285 284 284 283 282 281 281 280 279 278 277 276 275 274 273 272 271 270
295 296 297 298 298 297 297 297 297 297 296 295 295 294 294 293 292 291 289 287 287 286 286 286 285 285 284 284 283 282 282 281 280 279 278 277 276 276 275 274 273 272 271
296 297 297 298 298 298 298 298 297 297 296 296 295 295 294 294 293 293 292 291 289 289 288 287 287 286 285 284 284 283 282 282 281 280 279 278 277 276 275 274 273 272 271
297 298 298 299 299 299 299 299 298 298 297 297 296 296 296 295 295 294 294 293 292 291 290 290 289 288 287 286 286 285 284 283 282 281 280 279 278 277 276 274 273 272 271
297 298 298 299 299 299 299 299 299 299 298 298 298 297 297 297 296 296 295 294 293 293 292 292 291 290 289 289 288 287 286 284 283 282 281 280 279 278 276 275 274 272 271
297 298 298 299 299 299 300 300 300 299 299 298 298 298 298 298 297 297 297 296 296 295 294 294 293 292 291 290 290 289 288 287 286 285 283 282 281 279 278 276 275 273 272
298 299 299 300 300 300 300 300 300 299 299 299 299 298 298 298 298 298 297 297 297 297 296 296 295 294 293 293 292 291 290 289 288 287 285 284 282 281 279 278 276 274 273
299 299 300 300 300 300 300 300 300 300 300 299 299 299 299 299 298 298 298 298 298 298 297 297 297 296 296 295 294 294 292 291 290 289 287 285 283 282 280 278 276 274 272
299 299 300 300 300 300 300 300 300 300 301 300 300 300 300 299 299 299 299 299 299 299 298 298 298 297 297 296 295 294 293 293 291 290 288 286 284 282 280 277 275 273 271
299 299 300 301 301 301 301 301 301 302 302 301 301 301 301 300 300 300 300 300 300 300 300 299 299 299 298 297 295 295 294 293 291 289 287 286 283 281 279 276 274 272 270
300 300 301 301 302 302 302 302 302 302 302 302 302 302 302 302 301 301 301 301 301 301 301 301 300 299 298 297 296 294 293 292 290 288 286 284 282 280 277 275 272 270 267
300 301 302 302 302 303 303 303 303 303 303 303 303 303 303 302 302 302 302 302 302 302 302 302 301 300 298 297 295 294 293 291 290 288 286 284 281 279 276 272 270 268 266
301 302 302 303 303 303 303 304 304 304 304 304 304 304 303 304 304 304 304 304 304 304 303 302 301 300 298 297 295 294 293 291 289 286 284 282 280 278 275 273 270 268 266
302 302 303 303 304 304 304 304 304 305 305 305 305 305 305 305 305 305 305 305 305 304 303 302 301 300 299 297 295 294 293 291 289 286 283 280 277 275 274 273 271 270 267
302 303 303 304 304 304 305 305 305 305 306 306 306 306 306 306 306 306 305 305 304 303 302 301 301 300 299 297 296 295 293 292 289 287 283 280 277 275 274 272 271 270 269
303 304 304 305 305 305 305 306 306 306 306 306 306 307 307 307 306 306 305 304 303 302 301 300 300 299 298 297 296 295 294 292 290 287 284 282 278 276 274 272 271 271 269
304 305 305 305 306 306 306 306 306 306 307 307 307 308 308 307 307 306 305 304 303 302 300 300 299 298 297 296 295 295 294 293 290 287 285 283 280 276 273 273 272 271 269
Height
5818 5817 5815 5814 5812 5810 5809 5807 5805 5804 5802 5800 5799 5797 5795 5794 5792 5791 5789 5788 5787 5786 5785 5785 5784 5783 5783 5783 5782 5782 5782 5782 5782 5782 5782 5783 5783 5783 5784 5784 5785 5786 5786
5813 5811 5809 5807 5806 5804 5802 5800 5798 5797 5795 5793 5791 5789 5787 5786 5784 5782 5780 5779 5778 5777 5776 5775 5774 5773 5773 5772 5772 5771 5771 5771 5771 5771 5771 5771 5771 5772 5772 5773 5773 5774 5775
5807 5805 5803 5801 5799 5797 5795 5793 5791 5789 5787 5785 5783 5781 5779 5777 5775 5773 5772 5770 5768 5767 5766 5765 5764 5763 5762 5761 5761 5760 5760 5760 5759 5759 5759 5759 5759 5759 5760 5760 5761 5762 5762
5801 5799 5797 5795 5792 5790 5788 5786 5784 5781 5779 5777 5775 5773 5771 5769 5766 5764 5762 5761 5759 5757 5756 5755 5754 5752 5751 5750 5749 5749 5748 5748 5747 5747 5747 5747 5747 5747 5747 5747 5748 5748 5749
5795 5793 5790 5788 5785 5783 5781 5778 5776 5774 5771 5769 5767 5765 5762 5760 5758 5755 5753 5751 5749 5747 5745 5744 5742 5741 5740 5738 5737 5736 5736 5735 5734 5734 5734 5734 5733 5734 5734 5734 5734 5735 5735
5788 5786 5783 5781 5778 5775 5773 5770 5768 5765 5763 5761 5759 5757 5754 5751 5749 5746 5744 5741 5739 5737 5735 5733 5731 5729 5728 5726 5725 5724 5722 5722 5721 5720 5720 5720 5720 5720 5720 5720 5720 5721 5721
5781 5779 5776 5773 5770 5768 5765 5762 5760 5757 5754 5753 5751 5749 5746 5743 5740 5737 5734 5731 5729 5726 5724 5721 5719 5717 5715 5713 5711 5710 5709 5708 5707 5706 5705 5705 5705 5705 5705 5705 5705 5705 5706
5774 5771 5768 5766 5763 5760 5757 5754 5751 5748 5745 5742 5740 5739 5737 5735 5730 5727 5724 5720 5717 5714 5712 5709 5706 5704 5702 5699 5697 5695 5694 5693 5691 5690 5689 5689 5688 5688 5688 5688 5688 5689 5689
5766 5764 5760 5757 5754 5751 5748 5745 5741 5738 5735 5732 5729 5726 5724 5724 5722 5720 5715 5710 5706 5702 5699 5696 5693 5689 5687 5684 5682 5680 5678 5676 5675 5673 5672 5671 5670 5670 5670 5670 5670 5671 5671
5758 5755 5752 5749 5745 5742 5738 5735 5731 5728 5724 5721 5717 5713 5710 5708 5706 5707 5706 5700 5695 5691 5687 5683 5679 5675 5672 5669 5666 5664 5661 5659 5657 5655 5654 5652 5651 5651 5650 5650 5650 5651 5652
5750 5746 5743 5739 5736 5732 5728 5725 5721 5717 5713 5709 5706 5702 5698 5694 5690 5688 5689 5687 5683 5678 5674 5669 5665 5660 5656 5653 5649 5646 5643 5641 5638 5636 5634 5633 5632 5631 5630 5630 5630 5630 5631
5741 5737 5733 5729 5726 5722 5718 5714 5710 5706 5702 5697 5693 5689 5685 5681 5676 5672 5670 5669 5667 5664 5659 5654 5649 5644 5639 5635 5632 5628 5625 5621 5619 5616 5614 5612 5611 5610 5609 5608 5608 5608 5608
5731 5727 5723 5719 5715 5711 5707 5703 5699 5694 5690 5685 5680 5676 5671 5666 5661 5657 5653 5650 5648 5646 5643 5638 5632 5626 5621 5616 5612 5608 5605 5601 5598 5595 5592 5590 5588 5587 5586 5585 5585 5585 5585
5722 5718 5713 5709 5705 5700 5696 5692 5687 5682 5677 5672 5667 5662 5657 5651 5646 5641 5636 5632 5629 5627 5624 5619 5613 5607 5601 5596 5591 5587 5583 5579 5576 5572 5569 5567 5565 5563 5562 5561 5560 5560 5560
5712 5707 5703 5698 5694 5689 5684 5680 5675 5670 5664 5659 5654 5648 5643 5637 5631 5625 5619 5613 5609 5606 5605 5600 5593 5587 5580 5575 5570 5565 5560 5556 5552 5548 5545 5542 5539 5537 5535 5534 5533 5533 5533
5701 5696 5692 5687 5682 5677 5672 5667 5662 5657 5651 5645 5640 5634 5628 5622 5616 5610 5603 5597 5590 5585 5582 5579 5571 5565 5558 5553 5547 5541 5536 5531 5527 5522 5519 5515 5512 5509 5507 5506 5505 5505 5505
5690 5685 5680 5675 5670 5665 5660 5654 5649 5643 5637 5631 5625 5619 5613 5607 5601 5594 5587 5581 5574 5566 5562 5559 5551 5543 5535 5528 5523 5516 5510 5505 5500 5495 5491 5487 5484 5482 5480 5478 5477 5477 5477
5678 5673 5668 5663 5657 5652 5646 5641 5635 5630 5624 5617 5611 5604 5598 5591 5585 5578 5570 5563 5556 5548 5541 5537 5532 5523 5514 5505 5498 5492 5486 5480 5474 5469 5464 5460 5457 5455 5453 5452 5452 5452 5453
5666 5661 5655 5650 5644 5639 5633 5627 5622 5616 5609 5603 5596 5589 5582 5575 5568 5560 5553 5545 5537 5529 5520 5513 5509 5500 5492 5482 5475 5468 5462 5456 5450 5445 5440 5437 5434 5432 5430 5430 5430 5431 5432
5653 5648 5642 5636 5631 5625 5619 5613 5607 5601 5594 5587 5580 5572 5565 5558 5550 5542 5535 5526 5517 5508 5499 5491 5484 5477 5469 5459 5451 5445 5440 5434 5429 5423 5419 5416 5413 5412 5411 5411 5411 5412 5413
5640 5635 5629 5623 5617 5610 5604 5598 5593 5586 5579 5572 5564 5556 5548 5540 5531 5523 5514 5505 5496 5487 5477 5468 5460 5453 5446 5436 5429 5422 5418 5414 5410 5404 5401 5398 5396 5395 5394 5394 5395 5396 5397
5627 5621 5615 5609 5603 5596 5590 5583 5576 5570 5563 5556 5548 5539 5531 5521 5512 5503 5493 5483 5472 5462 5453 5444 5437 5430 5423 5415 5408 5402 5397 5394 5393 5389 5385 5384 5381 5380 5379 5380 5380 5382 5383
5614 5608 5602 5595 5589 5581 5574 5567 5560 5553 5546 5538 5529 5521 5512 5502 5491 5482 5472 5462 5451 5439 5429 5421 5415 5408 5401 5395 5389 5385 5381 5378 5376 5373 5371 5371 5368 5368 5367 5367 5368 5369 5370
5601 5595 5588 5581 5574 5566 5558 5551 5543 5536 5529 5520 5510 5501 5491 5482 5470 5459 5451 5442 5432 5421 5410 5401 5395 5389 5383 5377 5372 5369 5366 5364 5363 5360 5357 5358 5357 5356 5356 5356 5356 5357 5358
5587 5581 5574 5566 5559 5551 5542 5534 5525 5518 5511 5502 5492 5481 5469 5459 5449 5436 5427 5419 5412 5403 5393 5385 5378 5372 5367 5363 5358 5355 5353 5351 5351 5349 5346 5346 5346 5346 5346 5345 5345 5346 5347
5574 5567 5559 5551 5543 5535 5526 5516 5507 5499 5492 5484 5474 5462 5448 5436 5426 5414 5404 5397 5391 5384 5377 5371 5364 5359 5354 5350 5346 5343 5341 5339 5339 5338 5337 5335 5335 5335 5336 5336 5335 5336 5337